| time (UTC) | temp F | wind direction | speed MPH | gust MPH | rain 1hr in | rain 24hr in | rain mn in | humidity % | barometer mb |
| 20260905004042 | 74 | 0.0 | 0.0 | 0.00 | 0.00 | 0.00 | 71 | 1009.3 | |
| 20260905003018 | 74 | 0.0 | 1.0 | 0.00 | 0.00 | 0.00 | 71 | 1009.2 | |
| 20260905002018 | 74 | 0.0 | 1.0 | 0.00 | 0.00 | 0.00 | 70 | 1009.0 | |
| 20260905001017 | 74 | 0.0 | 1.0 | 0.00 | 0.00 | 0.00 | 69 | 1008.9 | |
| 20260905000016 | 74 | 0.0 | 0.0 | 0.00 | 0.00 | 0.00 | 69 | 1008.8 | |
| 20260904235015 | 74 | 0.0 | 0.0 | 0.00 | 0.00 | 0.00 | 68 | 1008.9 | |
| 20260904234016 | 75 | 0.0 | 0.0 | 0.00 | 0.00 | 0.00 | 67 | 1008.7 | |
| 20260904233017 | 76 | 0.0 | 0.0 | 0.00 | 0.00 | 0.00 | 65 | 1008.7 | |
| 20260904232035 | 77 | 0.0 | 0.0 | 0.00 | 0.00 | 0.00 | 63 | 1008.8 | |
| 20260904231018 | 78 | 0.0 | 0.0 | 0.00 | 0.00 | 0.00 | 61 | 1008.8 | |
| 20260904230020 | 79 | 0.0 | 3.0 | 0.00 | 0.00 | 0.00 | 59 | 1008.7 | |
| 20260904225031 | 81 | 0.0 | 1.0 | 0.00 | 0.00 | 0.00 | 56 | 1008.8 | |
| 20260904224021 | 82 | 0.0 | 2.0 | 0.00 | 0.00 | 0.00 | 54 | 1008.7 | |
| 20260904223050 | 83 | 0.0 | 1.0 | 0.00 | 0.00 | 0.00 | 52 | 1008.6 | |
| 20260904222022 | 82 | 0.0 | 2.0 | 0.00 | 0.00 | 0.00 | 52 | 1008.5 | |
| 20260904221021 | 82 | 0.0 | 1.0 | 0.00 | 0.00 | 0.00 | 52 | 1008.4 | |
| 20260904220020 | 82 | 0.0 | 1.0 | 0.00 | 0.00 | 0.00 | 52 | 1008.4 | |
| 20260904215023 | 84 | 0.0 | 0.0 | 0.00 | 0.00 | 0.00 | 50 | 1008.4 | |
| 20260904214018 | 83 | 0.0 | 4.0 | 0.00 | 0.00 | 0.00 | 50 | 1008.3 | |
| 20260904213018 | 82 | 0.0 | 4.0 | 0.00 | 0.00 | 0.00 | 50 | 1008.4 | |
| 20260904212023 | 83 | 0.0 | 2.0 | 0.00 | 0.00 | 0.00 | 50 | 1008.6 | |
| 20260904211018 | 84 | 0.0 | 1.0 | 0.00 | 0.00 | 0.00 | 50 | 1008.6 | |
| 20260904210019 | 84 | 315 | 1.0 | 4.0 | 0.00 | 0.00 | 0.00 | 48 | 1008.6 |
| 20260904205018 | 85 | 0.0 | 1.0 | 0.00 | 0.00 | 0.00 | 49 | 1008.6 | |
| 20260904204020 | 85 | 0.0 | 3.0 | 0.00 | 0.00 | 0.00 | 48 | 1008.5 | |
| 20260904203030 | 85 | 0.0 | 3.0 | 0.00 | 0.00 | 0.00 | 48 | 1008.5 | |
| 20260904202033 | 84 | 0.0 | 5.0 | 0.00 | 0.00 | 0.00 | 48 | 1008.7 | |
| 20260904201020 | 84 | 0.0 | 1.0 | 0.00 | 0.00 | 0.00 | 48 | 1008.7 | |
| 20260904200018 | 85 | 225 | 1.0 | 6.0 | 0.00 | 0.00 | 0.00 | 46 | 1008.7 |
| 20260904195019 | 85 | 0.0 | 2.0 | 0.00 | 0.00 | 0.00 | 48 | 1008.8 | |
| 20260904194017 | 84 | 0.0 | 4.0 | 0.00 | 0.00 | 0.00 | 47 | 1008.8 | |
| 20260904193038 | 85 | 0.0 | 2.0 | 0.00 | 0.00 | 0.00 | 45 | 1008.8 | |
| 20260904192017 | 86 | 0.0 | 5.0 | 0.00 | 0.00 | 0.00 | 43 | 1008.7 | |
| 20260904191017 | 86 | 0.0 | 2.0 | 0.00 | 0.00 | 0.00 | 42 | 1008.7 | |
| 20260904190057 | 86 | 0 | 1.0 | 6.0 | 0.00 | 0.00 | 0.00 | 44 | 1008.6 |
| 20260904185017 | 86 | 0.0 | 2.0 | 0.00 | 0.00 | 0.00 | 43 | 1008.8 | |
| 20260904184017 | 86 | 0.0 | 1.0 | 0.00 | 0.00 | 0.00 | 44 | 1009.0 | |
| 20260904183019 | 86 | 23 | 1.0 | 6.0 | 0.00 | 0.00 | 0.00 | 43 | 1009.1 |
| 20260904182037 | 87 | 0.0 | 4.0 | 0.00 | 0.00 | 0.00 | 43 | 1009.1 | |
| 20260904181018 | 86 | 0.0 | 3.0 | 0.00 | 0.00 | 0.00 | 44 | 1009.0 | |
| 20260904180038 | 86 | 293 | 1.0 | 5.0 | 0.00 | 0.00 | 0.00 | 43 | 1009.1 |
| 20260904175017 | 85 | 45 | 1.0 | 5.0 | 0.00 | 0.00 | 0.00 | 45 | 1009.0 |
| 20260904174017 | 85 | 45 | 1.0 | 5.0 | 0.00 | 0.00 | 0.00 | 44 | 1009.0 |
| 20260904173017 | 85 | 0.0 | 5.0 | 0.00 | 0.00 | 0.00 | 45 | 1008.9 | |
| 20260904172017 | 85 | 0.0 | 2.0 | 0.00 | 0.00 | 0.00 | 46 | 1009.2 | |
| 20260904171057 | 85 | 68 | 1.0 | 6.0 | 0.00 | 0.00 | 0.00 | 47 | 1009.2 |
| 20260904170017 | 85 | 113 | 1.0 | 6.0 | 0.00 | 0.00 | 0.00 | 46 | 1009.3 |
| 20260904165018 | 84 | 45 | 1.0 | 3.0 | 0.00 | 0.00 | 0.00 | 51 | 1009.2 |
| 20260904164017 | 84 | 45 | 1.0 | 7.0 | 0.00 | 0.00 | 0.00 | 50 | 1009.4 |
| 20260904163017 | 84 | 0.0 | 4.0 | 0.00 | 0.00 | 0.00 | 52 | 1009.3 | |
| 20260904162038 | 83 | 0.0 | 5.0 | 0.00 | 0.00 | 0.00 | 55 | 1009.3 | |
| 20260904161017 | 81 | 0.0 | 1.0 | 0.00 | 0.00 | 0.00 | 57 | 1009.5 | |
| 20260904160017 | 81 | 0.0 | 4.0 | 0.00 | 0.00 | 0.00 | 58 | 1009.8 | |
| 20260904155057 | 81 | 0.0 | 1.0 | 0.00 | 0.00 | 0.00 | 60 | 1009.7 | |
| 20260904154018 | 80 | 0.0 | 4.0 | 0.00 | 0.00 | 0.00 | 60 | 1009.9 | |
| 20260904153057 | 81 | 0.0 | 1.0 | 0.00 | 0.00 | 0.00 | 60 | 1010.0 | |
| 20260904152017 | 81 | 293 | 1.0 | 5.0 | 0.00 | 0.00 | 0.00 | 60 | 1010.1 |
| 20260904151017 | 81 | 0.0 | 2.0 | 0.00 | 0.00 | 0.00 | 60 | 1009.9 | |
| 20260904150017 | 81 | 0.0 | 4.0 | 0.00 | 0.00 | 0.00 | 61 | 1010.1 | |
| 20260904145037 | 80 | 0.0 | 3.0 | 0.00 | 0.00 | 0.00 | 65 | 1009.8 | |
| 20260904144017 | 79 | 270 | 1.0 | 6.0 | 0.00 | 0.00 | 0.00 | 66 | 1009.9 |
| 20260904143017 | 78 | 0.0 | 4.0 | 0.00 | 0.00 | 0.00 | 68 | 1010.0 | |
| 20260904142035 | 77 | 0.0 | 5.0 | 0.00 | 0.00 | 0.00 | 70 | 1010.1 | |
| 20260904141053 | 77 | 0.0 | 4.0 | 0.00 | 0.00 | 0.00 | 71 | 1010.0 | |
| 20260904140026 | 76 | 0.0 | 3.0 | 0.00 | 0.00 | 0.00 | 74 | 1010.0 | |
| 20260904135017 | 75 | 0.0 | 1.0 | 0.00 | 0.00 | 0.00 | 75 | 1010.1 | |
| 20260904134039 | 75 | 0.0 | 2.0 | 0.00 | 0.00 | 0.00 | 77 | 1010.1 | |
| 20260904133018 | 74 | 0.0 | 2.0 | 0.00 | 0.00 | 0.00 | 78 | 1010.1 | |
| 20260904132020 | 74 | 0.0 | 1.0 | 0.00 | 0.00 | 0.00 | 79 | 1010.1 | |
| 20260904131020 | 73 | 293 | 1.0 | 4.0 | 0.00 | 0.00 | 0.00 | 79 | 1010.2 |
| 20260904130023 | 73 | 315 | 1.0 | 4.0 | 0.00 | 0.00 | 0.00 | 80 | 1010.2 |
| 20260904125022 | 72 | 0.0 | 3.0 | 0.00 | 0.00 | 0.00 | 82 | 1010.2 | |
| 20260904124017 | 72 | 0.0 | 2.0 | 0.00 | 0.00 | 0.00 | 84 | 1010.2 | |
| 20260904123037 | 71 | 0.0 | 2.0 | 0.00 | 0.00 | 0.00 | 90 | 1010.2 | |
| 20260904122037 | 70 | 315 | 1.0 | 4.0 | 0.00 | 0.00 | 0.00 | 95 | 1010.1 |
| 20260904121018 | 69 | 0.0 | 2.0 | 0.00 | 0.00 | 0.00 | 98 | 1010.0 | |
| 20260904120020 | 68 | 0.0 | 1.0 | 0.00 | 0.00 | 0.00 | 98 | 1010.1 | |
| 20260904115019 | 67 | 0.0 | 0.0 | 0.00 | 0.00 | 0.00 | 98 | 1009.9 | |
| 20260904114019 | 67 | 0.0 | 0.0 | 0.00 | 0.00 | 0.00 | 98 | 1009.9 | |
| 20260904113016 | 67 | 0.0 | 0.0 | 0.00 | 0.00 | 0.00 | 98 | 1009.8 | |
| 20260904112017 | 67 | 0.0 | 0.0 | 0.00 | 0.00 | 0.00 | 98 | 1009.7 | |
| 20260904111057 | 66 | 0.0 | 0.0 | 0.00 | 0.00 | 0.00 | 98 | 1009.6 | |
| 20260904110017 | 66 | 0.0 | 0.0 | 0.00 | 0.00 | 0.00 | 98 | 1009.5 | |
| 20260904105016 | 66 | 0.0 | 0.0 | 0.00 | 0.00 | 0.00 | 98 | 1009.6 | |
| 20260904104016 | 67 | 0.0 | 0.0 | 0.00 | 0.00 | 0.00 | 98 | 1009.5 | |
| 20260904103016 | 67 | 0.0 | 0.0 | 0.00 | 0.00 | 0.00 | 98 | 1009.5 | |
| 20260904102024 | 67 | 0.0 | 0.0 | 0.00 | 0.00 | 0.00 | 97 | 1009.6 | |
| 20260904101016 | 67 | 0.0 | 0.0 | 0.00 | 0.00 | 0.00 | 97 | 1009.4 | |
| 20260904100039 | 68 | 0.0 | 0.0 | 0.00 | 0.00 | 0.00 | 97 | 1009.4 | |
| 20260904095017 | 68 | 0.0 | 0.0 | 0.00 | 0.00 | 0.00 | 97 | 1009.3 | |
| 20260904094036 | 68 | 0.0 | 0.0 | 0.00 | 0.00 | 0.00 | 98 | 1009.3 | |
| 20260904093058 | 69 | 0.0 | 0.0 | 0.00 | 0.00 | 0.00 | 98 | 1009.2 | |
| 20260904092019 | 69 | 0.0 | 0.0 | 0.00 | 0.00 | 0.00 | 97 | 1009.3 | |
| 20260904091521 | 69 | 0.0 | 0.0 | 0.00 | 0.00 | 0.00 | 97 | 1009.1 | |
| 20260904090538 | 69 | 0.0 | 0.0 | 0.00 | 0.00 | 0.00 | 97 | 1009.1 | |
| 20260904085516 | 69 | 0.0 | 0.0 | 0.00 | 0.00 | 0.00 | 97 | 1009.1 | |
| 20260904084520 | 69 | 0.0 | 0.0 | 0.00 | 0.00 | 0.00 | 97 | 1009.0 | |
| 20260904083538 | 69 | 0.0 | 0.0 | 0.00 | 0.00 | 0.00 | 98 | 1009.0 | |
| 20260904082516 | 69 | 0.0 | 0.0 | 0.00 | 0.00 | 0.00 | 97 | 1008.9 | |
| 20260904081516 | 69 | 0.0 | 0.0 | 0.00 | 0.00 | 0.00 | 97 | 1009.0 | |
| 20260904080518 | 69 | 0.0 | 0.0 | 0.00 | 0.00 | 0.00 | 97 | 1009.1 | |
| 20260904075537 | 69 | 0.0 | 0.0 | 0.00 | 0.00 | 0.00 | 97 | 1009.0 | |
| 20260904074516 | 69 | 0.0 | 0.0 | 0.00 | 0.00 | 0.00 | 97 | 1009.1 | |
| 20260904073523 | 69 | 0.0 | 0.0 | 0.00 | 0.00 | 0.00 | 97 | 1009.3 | |
| 20260904072516 | 69 | 0.0 | 0.0 | 0.00 | 0.00 | 0.00 | 97 | 1009.4 | |
| 20260904071517 | 69 | 0.0 | 0.0 | 0.00 | 0.00 | 0.00 | 97 | 1009.7 | |
| 20260904070517 | 69 | 0.0 | 0.0 | 0.00 | 0.00 | 0.00 | 97 | 1009.7 | |
| 20260904065538 | 69 | 0.0 | 0.0 | 0.00 | 0.00 | 0.00 | 97 | 1009.7 | |
| 20260904064518 | 69 | 0.0 | 0.0 | 0.00 | 0.00 | 0.00 | 97 | 1009.9 | |
| 20260904063536 | 69 | 0.0 | 0.0 | 0.00 | 0.00 | 0.00 | 97 | 1009.9 | |
| 20260904062517 | 69 | 0.0 | 0.0 | 0.00 | 0.00 | 0.00 | 97 | 1009.7 | |
| 20260904061517 | 69 | 0.0 | 0.0 | 0.00 | 0.01 | 0.00 | 97 | 1009.8 | |
| 20260904060516 | 69 | 0.0 | 0.0 | 0.00 | 0.02 | 0.00 | 97 | 1009.9 | |
| 20260904055536 | 69 | 0.0 | 0.0 | 0.00 | 0.03 | 0.00 | 97 | 1010.0 | |
| 20260904054544 | 69 | 0.0 | 0.0 | 0.00 | 0.05 | 0.00 | 97 | 1010.1 | |
| 20260904053540 | 69 | 0.0 | 0.0 | 0.00 | 0.05 | 0.00 | 97 | 1010.2 | |
| 20260904052541 | 69 | 0.0 | 0.0 | 0.00 | 0.05 | 0.00 | 97 | 1010.2 | |
| 20260904051527 | 69 | 0.0 | 0.0 | 0.00 | 0.05 | 0.00 | 97 | 1010.3 | |
| 20260904050541 | 70 | 0.0 | 0.0 | 0.00 | 0.05 | 0.00 | 96 | 1010.5 | |
| 20260904045518 | 70 | 0.0 | 0.0 | 0.00 | 0.05 | 0.00 | 96 | 1010.5 | |
| 20260904044524 | 70 | 0.0 | 0.0 | 0.00 | 0.05 | 0.00 | 96 | 1010.7 | |
| 20260904043525 | 70 | 0.0 | 0.0 | 0.00 | 0.05 | 0.00 | 96 | 1010.7 | |
| 20260904042520 | 70 | 0.0 | 0.0 | 0.00 | 0.05 | 0.00 | 96 | 1010.6 | |
| 20260904041529 | 70 | 0.0 | 0.0 | 0.00 | 0.05 | 0.00 | 96 | 1010.8 | |
| 20260904040516 | 71 | 0.0 | 0.0 | 0.00 | 0.05 | 0.00 | 96 | 1010.8 | |
| 20260904035516 | 71 | 0.0 | 0.0 | 0.00 | 0.05 | 0.05 | 96 | 1010.7 | |
| 20260904034517 | 71 | 0.0 | 0.0 | 0.00 | 0.05 | 0.05 | 96 | 1010.6 | |
| 20260904033516 | 71 | 0.0 | 0.0 | 0.00 | 0.05 | 0.05 | 96 | 1010.9 | |
| 20260904032516 | 72 | 0.0 | 0.0 | 0.00 | 0.05 | 0.05 | 96 | 1011.1 | |
| 20260904031516 | 72 | 0.0 | 0.0 | 0.00 | 0.05 | 0.05 | 96 | 1010.9 | |
| 20260904030556 | 72 | 0.0 | 0.0 | 0.00 | 0.05 | 0.05 | 96 | 1011.1 | |
| 20260904025516 | 72 | 0.0 | 0.0 | 0.00 | 0.05 | 0.05 | 95 | 1011.1 | |
| 20260904024517 | 72 | 0.0 | 0.0 | 0.00 | 0.05 | 0.05 | 95 | 1011.1 | |
| 20260904023537 | 73 | 0.0 | 0.0 | 0.00 | 0.05 | 0.05 | 95 | 1011.1 | |
| 20260904022517 | 73 | 0.0 | 0.0 | 0.00 | 0.05 | 0.05 | 95 | 1011.1 | |
| 20260904021520 | 73 | 0.0 | 0.0 | 0.00 | 0.05 | 0.05 | 95 | 1011.2 | |
| 20260904020538 | 73 | 0.0 | 0.0 | 0.00 | 0.05 | 0.05 | 95 | 1011.3 | |
| 20260904015516 | 73 | 0.0 | 0.0 | 0.00 | 0.05 | 0.05 | 94 | 1011.4 | |
| 20260904014516 | 73 | 0.0 | 0.0 | 0.00 | 0.05 | 0.05 | 94 | 1011.4 | |
| 20260904013517 | 73 | 0.0 | 0.0 | 0.00 | 0.05 | 0.05 | 93 | 1011.4 | |
| 20260904012536 | 73 | 0.0 | 0.0 | 0.00 | 0.05 | 0.05 | 93 | 1011.3 | |
| 20260904011517 | 74 | 0.0 | 0.0 | 0.00 | 0.05 | 0.05 | 93 | 1011.4 | |
| 20260904010521 | 74 | 0.0 | 0.0 | 0.00 | 0.05 | 0.05 | 92 | 1011.3 | |
| 20260904005527 | 74 | 0.0 | 0.0 | 0.00 | 0.05 | 0.05 | 92 | 1011.4 |